Location: Rounton
(54.4000°N, 1.3500°W)
Time: 17:48:12
(UTC+00:00)

Altair - Visible Passes

Search period start: 30 November 2021 00:00
Search period end: 10 December 2021 00:00
Orbit: 1502 x 1682 km, 47.2° (Epoch: 29 November)

Date Brightness Start Highest point End Pass type
(mag) Time Alt. Az. Time Alt. Az. Time Alt. Az.
30 Nov 8.2 17:01:51 10° SW 17:10:19 40° SSE 17:17:53 13° E visible
30 Nov 7.6 19:04:54 10° WSW 19:13:53 56° S 19:15:54 48° SE visible
30 Nov 8.5 21:08:56 10° W 21:13:55 33° WSW 21:13:55 33° WSW visible
01 Dec 8.3 16:36:51 10° SW 16:45:15 38° SSE 16:53:28 10° E visible
01 Dec 7.7 18:39:46 10° WSW 18:48:46 56° S 18:52:05 39° ESE visible
01 Dec 8.2 20:43:47 10° W 20:50:06 40° SW 20:50:06 40° SW visible
02 Dec 8.4 16:11:52 10° SSW 16:20:11 37° SSE 16:28:19 10° E visible
02 Dec 7.7 18:14:39 10° WSW 18:23:40 55° S 18:28:16 30° ESE visible
02 Dec 7.9 20:18:39 10° W 20:26:17 48° SW 20:26:17 48° SW visible
02 Dec 9.5 22:23:18 10° W 22:24:18 13° W 22:24:18 13° W visible
03 Dec 7.8 17:49:32 10° WSW 17:58:34 54° S 18:04:28 23° ESE visible
03 Dec 7.7 19:53:30 10° W 20:02:20 51° SSW 20:02:29 51° SSW visible
03 Dec 9.2 21:58:04 10° W 22:00:31 18° W 22:00:31 18° W visible
04 Dec 7.9 17:24:25 10° WSW 17:33:27 54° S 17:40:42 16° E visible
04 Dec 7.7 19:28:21 10° W 19:37:14 52° SSW 19:38:42 48° SSE visible
04 Dec 9.0 21:32:51 10° W 21:36:44 23° WSW 21:36:44 23° WSW visible
05 Dec 8.0 16:59:19 10° WSW 17:08:21 53° SSE 17:16:56 11° E visible
05 Dec 7.8 19:03:11 10° W 19:12:08 53° SSW 19:14:58 41° SE visible
05 Dec 8.7 21:07:38 10° W 21:12:59 28° WSW 21:12:59 28° WSW visible
06 Dec 8.1 16:34:13 10° WSW 16:43:15 52° SSE 16:52:03 10° E visible
06 Dec 7.8 18:38:02 10° W 18:47:01 54° S 18:51:15 32° SE visible
06 Dec 8.5 20:42:26 10° W 20:49:17 33° SW 20:49:17 33° SW visible
07 Dec 8.1 16:09:07 10° SW 16:18:09 51° SSE 16:26:55 10° E visible
07 Dec 7.9 18:12:53 10° W 18:21:55 55° S 18:27:35 24° ESE visible
07 Dec 8.3 20:17:15 10° W 20:25:20 36° SSW 20:25:37 35° SSW visible
08 Dec 7.9 17:47:44 10° W 17:56:49 56° S 18:03:58 17° ESE visible
08 Dec 8.2 19:52:03 10° W 20:00:17 37° SSW 20:02:00 35° S visible
08 Dec 9.5 21:58:20 10° W 22:00:02 13° WSW 22:00:02 13° WSW visible
09 Dec 7.9 17:22:34 10° W 17:31:42 56° S 17:40:24 11° ESE visible
09 Dec 8.3 19:26:52 10° W 19:35:14 39° SSW 19:38:27 30° S visible
09 Dec 9.3 21:32:47 10° W 21:36:29 15° WSW 21:36:29 15° WSW visible
